Flag for Italy Weather past 2 weeks in Venice, Italy

Now
59 °F

Partly sunny.


Feels Like: 57 °F
Forecast: 55 / 68 °F
Wind: 10 mph from Northeast

Location: Venice / Tessera


UV Index: 0 (Low)

Visibility: N/A


Pressure: 29.71 "Hg

Humidity: 82%

Dew point: 54 °F

Location of VeniceLocation

Historic Weather in Venice

°F

Venice temperature yesterday

Maximum temperature yesterday: 61 °F (at 10:50 AM)
Minimum temperature yesterday: 52 °F (at 5:50 AM)
Average temperature yesterday: 57 °F

Past Weeks' High & Low Weather Summary

 TemperatureHumidityPressure
High72 °F (Apr 7, 1:50 PM)100% (Apr 14, 8:50 AM)30.15 "Hg (Apr 14, 8:50 AM)
Low43 °F (Apr 17, 4:50 AM)20% (Apr 16, 12:50 PM)29.65 "Hg (Apr 18, 6:50 PM)
Average58 °F65%29.96 "Hg
* Reported Apr 6 2:20 PM — Apr 21 2:20 PM, Venice, Weather by CustomWeather, © 2014

Note: Actual official high and low records may vary slightly from our data, if they occured in-between our weather recording intervals... More about our weather records

Advertising

Historic Weather Conditions — Data for Previous 24 hours

 ConditionsComfort  
Time TempWeatherWind HumidityBarometerVisibility
2:20 PM
Apr 21
57 °FPartly sunny.12 mph88%29.71 "HgN/A
1:50 PM57 °FPartly sunny.14 mph88%29.71 "HgN/A
1:20 PM57 °FBroken clouds.13 mph88%29.71 "HgN/A
12:50 PM55 °FScattered showers. Broken clouds.10 mph100%29.71 "Hg6 mi
12:20 PM55 °FScattered showers. Broken clouds.10 mph94%29.71 "Hg6 mi
11:50 AM55 °FScattered showers. Partly sunny.10 mph94%29.71 "Hg4 mi
11:20 AM54 °FLight rain. Partly sunny.9 mph94%29.71 "HgN/A
10:50 AM54 °FLight rain. Partly sunny.12 mph94%29.71 "Hg4 mi
10:20 AM55 °FLight rain. Broken clouds.13 mph88%29.71 "HgN/A
9:50 AM55 °FLight rain. Broken clouds.10 mph88%29.74 "HgN/A
9:20 AM54 °FLight rain. Broken clouds.9 mph94%29.74 "HgN/A
8:50 AM54 °FPartly sunny.8 mph94%29.74 "HgN/A
8:20 AM54 °FBroken clouds.10 mph94%29.74 "HgN/A
7:50 AM54 °FLight rain. Broken clouds.10 mph88%29.71 "HgN/A
7:20 AM54 °FPartly sunny.9 mph88%29.74 "HgN/A
6:50 AM54 °FPartly cloudy.12 mph88%29.71 "HgN/A
6:20 AM54 °FLight rain. Partly cloudy.12 mph82%29.71 "HgN/A
5:50 AM54 °FPassing clouds.12 mph82%29.71 "HgN/A
5:20 AM54 °FPassing clouds.8 mph82%29.71 "HgN/A
4:50 AM54 °FPassing clouds.9 mph77%29.71 "HgN/A
4:20 AM54 °FPassing clouds.8 mph77%29.71 "HgN/A
3:50 AM54 °FPassing clouds.7 mph77%29.74 "HgN/A
3:20 AM54 °FPassing clouds.8 mph77%29.74 "HgN/A
2:50 AM54 °FPassing clouds.9 mph77%29.74 "HgN/A
2:20 AM54 °FPassing clouds.10 mph77%29.74 "HgN/A
1:50 AM54 °FPassing clouds.10 mph77%29.74 "HgN/A
1:20 AM54 °FPassing clouds.9 mph77%29.77 "HgN/A
12:50 AM54 °FPassing clouds.8 mph77%29.77 "HgN/A
12:20 AM55 °FPassing clouds.9 mph72%29.77 "HgN/A
11:50 PM
Apr 20
55 °FPassing clouds.8 mph72%29.77 "HgN/A
10:50 PM55 °FPassing clouds.8 mph72%29.77 "HgN/A
10:20 PM55 °FPassing clouds.10 mph72%29.77 "HgN/A
9:50 PM55 °FClear.9 mph72%29.77 "Hg10 mi
9:20 PM55 °FClear.8 mph77%29.77 "Hg10 mi
8:50 PM57 °FSunny.9 mph72%29.74 "Hg10 mi
8:20 PM57 °FPassing clouds.9 mph72%29.74 "HgN/A
7:50 PM59 °FScattered clouds.12 mph68%29.74 "HgN/A
7:20 PM61 °FScattered clouds.8 mph68%29.74 "HgN/A
6:50 PM61 °FScattered clouds.10 mph68%29.74 "HgN/A
6:20 PM61 °FScattered clouds.10 mph72%29.74 "HgN/A
5:50 PM61 °FScattered clouds.10 mph72%29.74 "HgN/A
5:20 PM61 °FScattered clouds.13 mph68%29.74 "HgN/A
4:50 PM59 °FPartly sunny.14 mph77%29.74 "HgN/A
4:20 PM59 °FBroken clouds.12 mph77%29.74 "HgN/A
3:50 PM61 °FScattered clouds.13 mph72%29.74 "HgN/A
3:20 PM61 °FPartly sunny.13 mph72%29.74 "HgN/A
Weather by CustomWeather, © 2014

See weather overview